Location: Easter Hill Village
(37.9235°N, 122.3444°W)
Time: 22:57:15
(UTC+00:00)

Cosmos 1782 Rocket - Pass Details

Date: 16 September 2019
Orbit: 607 x 632 km, 82.5° (Epoch: 17 October)

Event Time Altitude Azimuth Distance (km) Brightness Sun altitude
Rises 13:08:44 0° 356° (N) 2,879 7.1 -9.3°
Reaches altitude 10° 13:10:59 10° 0° (N) 1,973 6.3 -8.8°
Maximum altitude 13:15:18 61° 81° (E) 700 4.2 -8.0°
Drops below altitude 10° 13:19:37 10° 162° (SSE) 1,972 6.3 -7.2°
Sets 13:21:52 0° 166° (SSE) 2,877 7.1 -6.7°
